Wind_Speed
29 29 29 28 28 27 26 26 26 26 27 27 28 28 28 29 30 30 32 34 34 35 37 38 39 40 40 41 41 41 42 42 43 43 44 44 45 45 45 45 45 45 45
27 27 26 27 27 27 27 26 25 26 27 28 28 29 29 29 29 30 32 32 34 35 35 36 37 38 39 40 40 41 41 41 41 42 42 42 43 43 43 43 43 42 43
26 26 26 26 26 27 27 27 26 26 27 27 28 28 28 28 28 30 31 31 33 34 34 35 36 37 38 38 38 39 39 39 40 40 40 41 40 41 41 41 41 41 41
24 24 24 24 24 25 25 25 26 26 26 27 27 27 27 27 28 30 30 31 32 34 35 36 36 37 36 37 37 37 37 38 38 38 38 38 38 38 38 38 38 38 38
23 24 24 24 24 24 24 25 25 25 26 26 27 27 27 27 28 29 30 31 32 33 33 33 34 34 34 34 34 35 35 35 35 36 36 35 35 35 35 35 35 34 33
22 22 22 22 22 23 24 24 24 24 24 26 27 28 28 28 28 29 30 30 31 31 31 31 31 32 32 32 32 33 32 32 33 33 33 32 31 31 31 31 30 30 30
20 21 21 22 22 22 22 23 23 24 24 25 26 27 27 27 28 28 28 28 29 29 29 30 30 30 29 29 29 30 30 30 30 29 29 28 28 27 28 27 27 26 26
18 19 20 21 21 21 21 22 23 24 24 25 25 25 26 26 26 27 27 27 27 27 27 27 27 27 27 27 27 27 27 26 26 26 26 25 25 25 25 24 24 23 22
17 18 18 19 19 20 21 21 22 23 24 24 24 24 25 25 25 25 25 25 25 24 24 24 24 24 25 25 24 23 23 23 23 23 23 23 23 22 22 21 20 19 19
15 16 17 18 19 20 20 20 21 22 22 22 23 23 23 24 23 23 22 22 22 22 22 21 22 22 22 21 20 20 20 20 20 20 20 20 19 19 18 17 17 17 17
13 14 15 16 17 18 18 19 20 20 21 21 21 22 22 22 21 20 19 19 19 19 19 20 20 19 19 18 18 18 18 18 17 17 17 16 16 15 15 14 14 14 14
11 11 12 14 15 15 16 17 17 18 19 19 20 20 20 20 19 18 17 17 17 17 17 17 17 16 16 16 16 16 15 15 15 15 14 13 13 13 12 12 11 12 12
10 10 11 11 11 12 13 13 14 15 16 16 16 16 16 16 16 15 15 15 15 15 15 15 14 14 14 14 14 14 13 13 12 12 11 11 11 10 10 10 10 10 11
9 9 10 11 11 11 12 12 12 11 12 12 12 12 13 13 13 13 13 13 13 13 13 12 12 12 13 13 13 12 11 10 10 10 9 9 9 8 8 9 9 9 10
7 8 8 9 9 9 9 9 9 9 9 9 9 10 10 10 10 11 11 11 11 11 11 11 11 11 11 11 11 10 9 8 8 8 8 8 7 7 7 7 7 8 8
6 7 7 8 8 8 7 7 7 7 7 8 8 8 8 8 8 8 8 8 8 8 9 9 9 10 9 9 8 8 8 7 7 7 6 6 5 5 5 6 6 6 7
6 6 6 6 6 5 5 5 4 5 5 5 6 6 6 6 6 5 5 6 6 7 7 8 8 8 8 7 7 7 6 6 6 5 5 4 4 4 4 4 5 6 7
4 4 4 4 4 3 2 2 2 3 3 3 3 3 3 4 4 4 4 5 6 7 7 7 6 6 6 6 6 5 5 5 4 3 3 3 3 3 3 4 5 6 7
5 5 5 4 3 2 2 2 2 2 2 2 2 3 3 3 3 4 4 5 5 5 5 5 5 5 5 5 4 4 3 3 2 2 2 2 3 3 4 5 6 7 7
7 8 7 7 7 6 6 5 5 4 4 4 4 3 4 4 4 5 5 5 5 5 5 5 5 4 4 4 4 3 3 2 2 3 3 4 4 4 5 6 6 7 8
9 10 10 10 10 10 9 8 8 7 6 6 6 5 5 5 5 6 6 6 5 5 5 5 4 4 4 4 4 3 3 4 4 4 5 5 5 6 6 6 7 7 8
11 11 11 11 12 11 11 10 10 9 9 8 7 7 7 7 8 8 8 7 7 6 6 5 5 5 5 4 4 4 5 5 5 5 6 6 6 6 6 7 7 7 8
13 13 12 12 12 12 12 12 11 11 10 10 9 9 9 9 9 9 9 9 8 8 8 7 7 7 6 6 6 6 6 6 6 6 7 7 6 7 7 7 7 7 7
15 14 14 14 13 13 13 12 12 12 11 11 11 11 10 10 10 11 11 10 10 10 10 9 9 8 8 8 8 7 7 7 7 7 7 7 7 7 7 7 7 7 7
16 16 15 14 14 14 13 13 13 12 12 12 12 12 12 12 12 12 12 12 12 11 11 10 10 10 9 9 9 9 8 8 8 8 8 7 7 7 6 6 6 7 7
17 17 16 15 15 14 14 13 13 13 13 13 12 12 12 12 12 12 13 13 12 12 12 11 11 10 10 10 9 9 9 9 8 8 7 7 6 6 6 6 6 6 6
Wind_Direction
257 256 257 259 259 259 260 259 259 261 260 258 256 257 258 259 260 261 262 263 265 267 270 272 274 275 275 277 279 280 281 282 283 284 285 286 287 288 289 289 290 290 290
258 256 257 258 259 260 259 258 256 257 258 257 258 259 261 261 262 262 265 267 269 270 273 274 276 277 277 279 280 281 282 283 284 285 287 288 288 289 290 291 291 291 291
256 256 258 260 259 258 257 255 256 257 260 260 259 259 261 263 265 267 269 271 272 273 275 276 277 278 279 280 281 282 283 285 286 287 288 290 290 291 291 292 292 292 292
256 257 257 258 257 257 255 254 255 256 259 261 260 261 263 265 267 269 271 274 276 276 276 277 279 280 280 281 282 283 284 286 287 288 290 291 293 293 294 294 294 294 293
255 255 255 255 256 257 258 257 257 257 259 260 261 265 267 268 270 272 273 275 277 278 279 280 280 280 282 282 283 284 286 287 288 289 291 293 294 295 295 296 297 297 296
257 256 255 255 255 257 256 258 259 262 263 262 265 269 270 270 272 274 276 277 278 279 280 281 282 282 283 285 286 287 287 288 289 291 292 294 296 297 298 299 300 300 299
258 260 260 259 259 257 258 259 262 265 267 267 268 270 272 273 274 276 278 279 280 281 282 283 285 285 285 287 288 288 289 289 290 292 294 296 297 299 301 302 302 302 303
260 260 260 259 258 259 260 262 264 265 267 268 270 271 273 275 276 277 279 281 283 283 284 285 286 286 287 288 288 289 290 291 293 294 296 298 300 302 303 304 305 305 306
263 260 259 261 261 262 264 265 264 265 268 270 272 273 274 275 276 277 280 282 283 285 286 287 287 287 289 290 290 290 291 293 294 296 298 300 302 303 304 306 308 309 310
265 263 263 264 264 265 266 266 266 267 269 271 272 273 274 275 276 279 281 282 283 285 286 287 288 290 291 291 291 292 293 295 296 298 300 301 303 304 307 309 310 311 314
270 267 265 267 268 268 267 267 268 268 270 272 273 274 275 276 277 280 281 281 283 285 287 289 290 292 293 292 293 294 294 296 298 300 303 304 306 307 309 311 312 314 318
277 274 272 273 271 269 268 268 268 269 273 274 273 273 275 275 277 279 280 281 284 287 289 290 291 292 293 294 295 295 296 297 299 302 303 304 307 308 310 313 317 320 323
283 279 277 278 273 273 272 271 271 272 273 274 274 274 274 274 276 277 277 280 284 286 288 290 291 292 294 295 295 296 297 299 301 303 305 307 309 312 317 321 325 328 330
286 281 280 282 281 279 278 276 276 275 276 276 275 273 273 272 273 275 278 281 283 286 289 290 291 293 295 295 296 298 299 300 303 307 310 313 317 321 325 328 330 332 337
297 291 289 288 285 285 284 280 278 279 280 281 280 277 276 276 276 278 280 280 282 285 288 291 294 296 297 299 301 301 301 302 306 311 314 317 320 324 329 334 338 342 351
305 301 295 293 291 288 285 284 284 284 284 283 283 282 282 282 283 284 284 282 284 289 294 297 298 299 298 297 299 302 302 305 310 315 317 321 327 333 340 347 353 1 9
315 310 302 301 302 298 288 286 287 290 292 292 289 287 288 290 290 291 294 296 297 300 303 304 304 304 302 299 301 304 307 310 314 320 325 333 344 353 1 10 18 24 25
347 341 333 328 323 317 307 300 299 306 314 313 309 307 308 310 311 313 315 314 312 311 311 311 312 312 312 312 312 313 315 319 323 330 342 358 15 27 31 37 40 41 39
27 25 25 27 31 38 42 40 34 24 21 22 17 12 6 359 353 344 335 328 325 325 326 327 328 329 329 331 333 334 336 340 348 6 26 45 61 62 59 58 55 51 50
50 52 54 55 60 66 67 67 66 63 56 49 44 35 28 18 8 360 354 351 349 345 342 343 344 346 349 353 359 4 11 26 48 64 69 79 83 78 72 70 64 60 58
61 63 63 64 65 66 65 66 67 65 60 57 53 49 43 32 24 18 14 11 8 5 4 6 9 12 16 21 29 40 52 63 75 84 87 89 89 85 81 77 71 67 61
66 67 67 66 65 65 65 65 64 63 61 59 56 52 47 42 38 34 31 30 31 32 32 33 34 36 40 45 52 60 71 78 83 89 92 94 92 86 83 81 76 68 60
70 70 68 66 66 67 67 66 64 63 62 60 57 54 52 49 45 42 41 41 42 44 46 48 51 54 58 60 63 69 77 82 87 92 93 94 90 88 86 80 73 65 56
71 70 69 67 67 67 66 65 64 62 60 59 57 56 54 51 49 49 48 49 49 51 53 55 56 58 61 64 69 74 77 83 90 92 92 92 90 87 82 76 68 60 52
70 69 67 66 66 65 64 64 63 62 61 59 57 56 55 54 54 53 52 52 52 53 55 57 59 61 63 67 70 73 77 83 87 90 91 89 86 81 74 68 60 53 48
67 66 65 64 63 63 63 63 63 61 59 58 57 56 56 55 55 54 54 54 55 56 57 59 61 63 64 66 69 72 75 79 82 83 83 81 77 72 66 60 54 49 44
Height
5762 5762 5762 5763 5763 5763 5764 5764 5763 5764 5764 5765 5765 5766 5766 5767 5767 5768 5768 5768 5767 5767 5767 5766 5764 5763 5762 5760 5758 5756 5754 5752 5750 5747 5744 5741 5739 5735 5732 5728 5725 5721 5718
5754 5755 5755 5756 5756 5756 5756 5756 5757 5757 5757 5758 5758 5758 5759 5759 5759 5759 5759 5759 5759 5758 5757 5756 5754 5753 5751 5750 5748 5746 5744 5742 5739 5737 5734 5731 5728 5725 5721 5717 5714 5710 5707
5747 5747 5747 5748 5748 5749 5748 5749 5750 5750 5750 5751 5751 5751 5751 5751 5751 5751 5751 5751 5750 5749 5748 5746 5745 5743 5741 5740 5738 5736 5734 5731 5729 5726 5723 5720 5717 5714 5710 5707 5703 5700 5696
5740 5740 5741 5741 5741 5742 5742 5742 5743 5743 5743 5743 5743 5744 5744 5744 5744 5744 5743 5742 5741 5740 5738 5737 5735 5734 5732 5730 5728 5726 5724 5722 5719 5717 5714 5711 5707 5704 5701 5697 5694 5690 5686
5733 5734 5734 5735 5735 5735 5736 5736 5736 5736 5736 5737 5737 5737 5737 5737 5736 5736 5735 5734 5732 5731 5729 5728 5726 5724 5722 5720 5719 5717 5715 5712 5710 5708 5705 5702 5698 5695 5692 5688 5684 5680 5677
5727 5727 5727 5728 5728 5729 5729 5729 5729 5729 5730 5730 5730 5730 5729 5729 5728 5728 5727 5726 5724 5723 5721 5719 5717 5716 5714 5712 5710 5708 5706 5704 5702 5699 5696 5694 5690 5687 5684 5680 5677 5673 5670
5721 5721 5721 5721 5722 5722 5723 5723 5723 5723 5723 5723 5723 5723 5722 5721 5721 5720 5719 5718 5716 5715 5713 5711 5709 5707 5706 5704 5702 5700 5698 5696 5694 5691 5689 5686 5683 5680 5677 5674 5670 5667 5664
5715 5715 5715 5715 5716 5716 5717 5717 5717 5717 5717 5717 5716 5716 5715 5714 5714 5713 5712 5710 5709 5707 5705 5704 5702 5700 5698 5697 5695 5693 5690 5688 5686 5684 5682 5679 5677 5674 5671 5668 5665 5662 5659
5709 5710 5710 5710 5710 5710 5710 5710 5711 5711 5710 5710 5709 5709 5708 5708 5707 5706 5705 5703 5702 5700 5698 5697 5695 5694 5692 5690 5688 5686 5684 5682 5680 5678 5675 5673 5671 5668 5666 5663 5660 5657 5655
5704 5704 5705 5705 5705 5705 5705 5705 5705 5704 5704 5704 5703 5702 5702 5701 5700 5699 5698 5697 5695 5694 5693 5691 5689 5687 5686 5684 5682 5680 5678 5676 5675 5673 5670 5668 5666 5663 5661 5659 5656 5654 5651
5700 5700 5700 5700 5700 5700 5699 5699 5699 5699 5698 5697 5697 5696 5695 5694 5693 5693 5692 5691 5690 5689 5687 5685 5684 5682 5680 5679 5677 5675 5673 5672 5670 5668 5666 5664 5662 5660 5658 5655 5653 5651 5648
5696 5696 5695 5695 5694 5694 5694 5693 5693 5693 5692 5692 5691 5690 5689 5688 5688 5687 5687 5686 5685 5684 5682 5681 5679 5678 5676 5674 5673 5671 5669 5668 5666 5664 5662 5660 5658 5657 5655 5653 5650 5648 5645
5692 5692 5691 5691 5690 5690 5689 5689 5688 5688 5687 5686 5686 5685 5684 5683 5683 5682 5682 5681 5680 5679 5678 5676 5675 5674 5672 5671 5669 5668 5666 5664 5662 5661 5659 5657 5656 5654 5652 5650 5648 5646 5644
5689 5689 5688 5687 5686 5686 5685 5685 5684 5684 5683 5682 5681 5681 5680 5679 5679 5678 5678 5677 5676 5675 5674 5673 5672 5670 5669 5667 5666 5664 5662 5661 5659 5658 5656 5655 5653 5651 5650 5648 5646 5644 5642
5687 5686 5685 5684 5683 5683 5682 5682 5681 5680 5680 5679 5678 5677 5677 5676 5675 5675 5674 5673 5673 5672 5671 5670 5669 5667 5666 5664 5662 5661 5659 5658 5656 5655 5654 5652 5651 5649 5648 5646 5645 5643 5641
5685 5684 5683 5682 5681 5680 5680 5679 5678 5678 5677 5676 5676 5675 5674 5673 5672 5672 5671 5670 5670 5669 5668 5667 5666 5664 5663 5661 5660 5658 5657 5655 5654 5653 5652 5650 5649 5648 5647 5645 5644 5642 5640
5684 5682 5681 5680 5679 5678 5678 5677 5676 5676 5675 5674 5674 5673 5672 5672 5671 5670 5669 5668 5668 5667 5666 5664 5663 5661 5660 5658 5657 5655 5654 5653 5652 5651 5650 5649 5648 5647 5646 5645 5643 5642 5641
5682 5681 5680 5679 5678 5677 5676 5676 5675 5675 5674 5673 5673 5672 5671 5670 5669 5668 5668 5667 5666 5665 5663 5662 5661 5659 5658 5656 5655 5653 5652 5651 5650 5649 5649 5648 5647 5646 5646 5645 5644 5643 5641
5682 5681 5680 5678 5677 5677 5676 5675 5675 5674 5674 5673 5672 5671 5671 5670 5669 5668 5667 5666 5665 5663 5662 5660 5659 5657 5656 5654 5653 5652 5651 5650 5649 5649 5648 5647 5647 5647 5646 5645 5644 5643 5642
5683 5682 5681 5679 5678 5677 5676 5676 5675 5674 5674 5673 5673 5672 5671 5670 5669 5668 5666 5665 5664 5662 5661 5659 5658 5656 5655 5654 5652 5651 5650 5650 5649 5649 5648 5648 5648 5647 5647 5646 5645 5645 5644
5685 5684 5683 5681 5680 5679 5678 5677 5676 5676 5675 5674 5673 5673 5672 5671 5669 5668 5666 5665 5663 5662 5660 5659 5657 5656 5655 5653 5652 5651 5651 5650 5649 5649 5649 5649 5648 5648 5648 5647 5647 5646 5645
5687 5686 5685 5684 5683 5682 5681 5680 5679 5678 5677 5676 5675 5674 5673 5672 5670 5668 5667 5665 5663 5662 5660 5659 5657 5656 5655 5654 5653 5652 5651 5651 5650 5650 5650 5650 5650 5650 5649 5649 5648 5648 5647
5690 5689 5688 5687 5686 5685 5684 5683 5681 5680 5679 5678 5677 5676 5675 5673 5672 5670 5668 5666 5665 5663 5661 5659 5658 5657 5656 5655 5654 5653 5653 5652 5652 5652 5651 5651 5651 5651 5651 5650 5650 5649 5648
5693 5692 5692 5690 5689 5688 5687 5686 5685 5683 5682 5681 5680 5678 5677 5675 5674 5672 5670 5668 5666 5665 5663 5661 5660 5659 5658 5657 5656 5655 5654 5654 5654 5653 5653 5653 5653 5653 5653 5652 5651 5651 5650
5697 5696 5695 5694 5693 5692 5690 5689 5688 5687 5685 5684 5683 5681 5679 5678 5676 5674 5673 5671 5669 5667 5666 5664 5663 5661 5660 5659 5658 5657 5657 5656 5656 5656 5655 5655 5655 5655 5654 5653 5653 5652 5651
5702 5701 5699 5698 5697 5695 5694 5693 5691 5690 5689 5687 5686 5684 5682 5681 5679 5677 5676 5674 5672 5670 5669 5667 5666 5664 5663 5662 5661 5660 5660 5659 5659 5658 5658 5657 5657 5656 5656 5655 5654 5653 5652